PROMETHEUS 2-1

Last updated on Wed Sep 17 2025 00:03:49 GMT+0000 (Coordinated Universal Time)

1 41854U 16067G 25259.57027378 .00085001 00000+0 10601-2 0 9997 2 41854 98.0609 125.2001 0003395 224.9056 135.1924 15.59602373485772
UTC large
Height (km)
Speed (km/s)
/
Latitude / Longitude
Inclination (degrees)
Orbital Period (minutes)
Azimuth
Elevation
Range (km)
Doppler Factor

Next 0 passes for location: London (51.5072 / 0.1276)

Sorry there are no passes over London.